• In Netherlands
  • List of Countries
  • For 7 days
  • Water Temperature
  • Satellite Maps
  • Weather Map
  • Weather Widgets
  • user-avatar
    Login

    Hourly Weather Potsdam

    Today, 21 June, Thursday

    Time Temperature Precipitation Wind Pressure Humidity
    00:00 +21°C° 0 mm 1 mps 758 mmHg 86%
    01:00 +19°C° 0 mm 2 mps 757 mmHg 88%
    02:00 +19°C° 0 mm 2 mps 757 mmHg 89%
    03:00 +19°C° 0 mm 2 mps 756 mmHg 90%
    04:00 +18°C° 0 mm 2 mps 756 mmHg 91%
    05:00 +20°C° 0.1 mm 3 mps 755 mmHg 86%
    06:00 +21°C° 0.1 mm 3 mps 755 mmHg 80%
    07:00 +22°C° 0.1 mm 4 mps 754 mmHg 75%
    08:00 +23°C° 0.2 mm 5 mps 754 mmHg 69%
    09:00 +24°C° 0.2 mm 6 mps 753 mmHg 63%
    10:00 +26°C° 0.2 mm 6 mps 753 mmHg 58%
    11:00 +23°C° 0.5 mm 6 mps 753 mmHg 65%
    12:00 +21°C° 0.5 mm 6 mps 753 mmHg 72%
    13:00 +19°C° 0.5 mm 6 mps 753 mmHg 79%
    14:00 +17°C° 0.2 mm 7 mps 753 mmHg 72%
    15:00 +17°C° 0.2 mm 8 mps 754 mmHg 65%
    16:00 +17°C° 0.2 mm 8 mps 755 mmHg 57%
    17:00 +16°C° 0 mm 8 mps 755 mmHg 55%
    18:00 +16°C° 0 mm 7 mps 755 mmHg 53%
    19:00 +16°C° 0 mm 7 mps 756 mmHg 50%
    20:00 +14°C° 0 mm 6 mps 756 mmHg 55%
    21:00 +13°C° 0 mm 5 mps 757 mmHg 60%
    22:00 +12°C° 0 mm 5 mps 757 mmHg 65%
    23:00 +10°C° 0 mm 5 mps 757 mmHg 66%

    Tomorrow, 22 June, Friday

    Time Temperature Precipitation Wind Pressure Humidity
    00:00 +10°C° 0 mm 5 mps 757 mmHg 67%
    01:00 +9°C° 0 mm 6 mps 758 mmHg 68%
    02:00 +9°C° 0 mm 6 mps 757 mmHg 70%
    03:00 +9°C° 0 mm 6 mps 757 mmHg 72%
    04:00 +9°C° 0 mm 6 mps 757 mmHg 73%
    05:00 +9°C° 0.2 mm 6 mps 757 mmHg 76%
    06:00 +9°C° 0.2 mm 6 mps 757 mmHg 78%
    07:00 +10°C° 0.2 mm 6 mps 757 mmHg 80%
    08:00 +11°C° 0.2 mm 6 mps 757 mmHg 75%
    09:00 +13°C° 0.2 mm 6 mps 757 mmHg 70%
    10:00 +15°C° 0.2 mm 6 mps 758 mmHg 66%
    11:00 +16°C° 0.3 mm 6 mps 758 mmHg 61%
    12:00 +17°C° 0.3 mm 6 mps 758 mmHg 56%
    13:00 +19°C° 0.3 mm 6 mps 757 mmHg 51%
    14:00 +19°C° 0.3 mm 6 mps 757 mmHg 50%
    15:00 +19°C° 0.3 mm 6 mps 757 mmHg 49%
    16:00 +20°C° 0.3 mm 6 mps 757 mmHg 48%
    17:00 +19°C° 0.1 mm 6 mps 758 mmHg 52%
    18:00 +17°C° 0.1 mm 5 mps 758 mmHg 55%
    19:00 +16°C° 0.1 mm 5 mps 758 mmHg 59%
    20:00 +15°C° 0 mm 5 mps 758 mmHg 63%
    21:00 +14°C° 0 mm 5 mps 759 mmHg 67%
    22:00 +13°C° 0 mm 5 mps 759 mmHg 70%
    23:00 +12°C° 0 mm 5 mps 759 mmHg 73%

    Day after tomorrow, 23 June, Saturday

    Time Temperature Precipitation Wind Pressure Humidity
    00:00 +12°C° 0 mm 5 mps 759 mmHg 76%
    01:00 +10°C° 0 mm 5 mps 759 mmHg 79%
    02:00 +10°C° 0 mm 6 mps 759 mmHg 78%
    03:00 +10°C° 0 mm 6 mps 760 mmHg 77%
    04:00 +10°C° 0 mm 6 mps 760 mmHg 76%
    05:00 +10°C° 0 mm 6 mps 760 mmHg 72%
    06:00 +11°C° 0 mm 6 mps 760 mmHg 69%
    07:00 +12°C° 0 mm 7 mps 760 mmHg 65%
    08:00 +13°C° 0.1 mm 6 mps 760 mmHg 70%
    09:00 +11°C° 0.1 mm 6 mps 760 mmHg 74%
    10:00 +11°C° 0.1 mm 6 mps 760 mmHg 79%
    11:00 +13°C° 0.1 mm 6 mps 760 mmHg 76%
    12:00 +14°C° 0.1 mm 6 mps 760 mmHg 72%
    13:00 +14°C° 0.1 mm 6 mps 760 mmHg 69%
    14:00 +15°C° 0 mm 6 mps 760 mmHg 67%
    15:00 +15°C° 0 mm 6 mps 760 mmHg 66%
    16:00 +15°C° 0 mm 5 mps 760 mmHg 64%
    17:00 +15°C° 0.1 mm 5 mps 760 mmHg 67%
    18:00 +14°C° 0.1 mm 5 mps 760 mmHg 69%
    19:00 +14°C° 0.1 mm 5 mps 760 mmHg 72%
    20:00 +13°C° 0 mm 4 mps 760 mmHg 75%
    21:00 +13°C° 0 mm 4 mps 761 mmHg 77%
    22:00 +12°C° 0 mm 4 mps 761 mmHg 80%
    23:00 +12°C° 0 mm 4 mps 761 mmHg 81%

    24 June, Sunday

    Time Temperature Precipitation Wind Pressure Humidity
    00:00 +12°C° 0 mm 4 mps 761 mmHg 83%
    01:00 +12°C° 0 mm 4 mps 761 mmHg 84%
    02:00 +12°C° 0.1 mm 4 mps 760 mmHg 86%
    03:00 +12°C° 0.1 mm 4 mps 760 mmHg 87%
    04:00 +12°C° 0.1 mm 4 mps 760 mmHg 89%
    05:00 +12°C° 0.1 mm 4 mps 761 mmHg 88%
    06:00 +13°C° 0.1 mm 4 mps 761 mmHg 87%
    07:00 +13°C° 0.1 mm 4 mps 761 mmHg 86%
    08:00 +14°C° 0.1 mm 4 mps 761 mmHg 82%
    09:00 +14°C° 0.1 mm 4 mps 761 mmHg 78%
    10:00 +15°C° 0.1 mm 4 mps 761 mmHg 75%
    11:00 +15°C° 0.2 mm 4 mps 761 mmHg 73%
    12:00 +16°C° 0.2 mm 5 mps 761 mmHg 71%
    13:00 +16°C° 0.2 mm 5 mps 761 mmHg 69%
    14:00 +18°C° 0.1 mm 4 mps 761 mmHg 70%
    15:00 +18°C° 0.1 mm 4 mps 761 mmHg 71%
    16:00 +18°C° 0.1 mm 4 mps 761 mmHg 72%
    17:00 +17°C° 0.1 mm 4 mps 761 mmHg 75%
    18:00 +17°C° 0.1 mm 3 mps 762 mmHg 78%
    19:00 +17°C° 0.1 mm 3 mps 762 mmHg 81%
    20:00 +16°C° 0.1 mm 3 mps 762 mmHg 84%
    21:00 +16°C° 0.1 mm 3 mps 762 mmHg 87%
    22:00 +15°C° 0.1 mm 2 mps 762 mmHg 90%
    23:00 +15°C° 0.1 mm 2 mps 762 mmHg 92%

    25 June, Monday

    Time Temperature Precipitation Wind Pressure Humidity
    00:00 +15°C° 0.1 mm 2 mps 763 mmHg 93%
    01:00 +15°C° 0.1 mm 2 mps 763 mmHg 94%
    02:00 +14°C° 0.1 mm 2 mps 763 mmHg 94%
    03:00 +14°C° 0.1 mm 2 mps 763 mmHg 95%
    04:00 +14°C° 0.1 mm 2 mps 763 mmHg 96%
    05:00 +15°C° 0 mm 2 mps 763 mmHg 94%
    06:00 +15°C° 0 mm 2 mps 763 mmHg 92%
    07:00 +16°C° 0 mm 2 mps 763 mmHg 90%
    08:00 +17°C° 0.1 mm 2 mps 763 mmHg 84%
    09:00 +18°C° 0.1 mm 2 mps 764 mmHg 77%
    10:00 +19°C° 0.1 mm 2 mps 764 mmHg 70%
    11:00 +20°C° 0 mm 2 mps 764 mmHg 66%
    12:00 +21°C° 0 mm 2 mps 763 mmHg 61%
    13:00 +23°C° 0 mm 2 mps 763 mmHg 57%
    14:00 +23°C° 0 mm 2 mps 763 mmHg 56%
    15:00 +23°C° 0 mm 2 mps 763 mmHg 54%
    16:00 +24°C° 0 mm 2 mps 763 mmHg 53%
    17:00 +23°C° 0 mm 1 mps 763 mmHg 56%
    18:00 +23°C° 0 mm 1 mps 763 mmHg 59%
    19:00 +21°C° 0 mm 0 mps 763 mmHg 62%
    20:00 +19°C° 0 mm 0 mps 764 mmHg 67%
    21:00 +18°C° 0 mm 0 mps 764 mmHg 72%
    22:00 +16°C° 0 mm 0 mps 764 mmHg 77%
    23:00 +15°C° 0 mm 0 mps 764 mmHg 79%

    26 June, Tuesday

    Time Temperature Precipitation Wind Pressure Humidity
    00:00 +15°C° 0 mm 0 mps 764 mmHg 81%
    01:00 +15°C° 0 mm 0 mps 764 mmHg 83%
    02:00 +14°C° 0 mm 0 mps 764 mmHg 84%
    03:00 +14°C° 0 mm 0 mps 764 mmHg 86%
    04:00 +14°C° 0 mm 0 mps 764 mmHg 88%
    05:00 +16°C° 0 mm 1 mps 765 mmHg 81%
    06:00 +19°C° 0 mm 1 mps 765 mmHg 75%
    07:00 +21°C° 0 mm 1 mps 765 mmHg 69%
    08:00 +22°C° 0 mm 1 mps 765 mmHg 63%
    09:00 +24°C° 0 mm 1 mps 765 mmHg 57%
    10:00 +26°C° 0 mm 1 mps 765 mmHg 51%
    11:00 +27°C° 0 mm 1 mps 765 mmHg 47%
    12:00 +28°C° 0 mm 1 mps 765 mmHg 43%
    13:00 +29°C° 0 mm 1 mps 764 mmHg 39%
    14:00 +29°C° 0 mm 1 mps 764 mmHg 38%
    15:00 +29°C° 0 mm 2 mps 764 mmHg 38%
    16:00 +29°C° 0 mm 2 mps 764 mmHg 37%
    17:00 +29°C° 0 mm 2 mps 764 mmHg 41%
    18:00 +28°C° 0 mm 1 mps 764 mmHg 45%
    19:00 +27°C° 0 mm 1 mps 764 mmHg 49%
    20:00 +25°C° 0 mm 1 mps 764 mmHg 53%
    21:00 +24°C° 0 mm 1 mps 764 mmHg 56%
    22:00 +22°C° 0 mm 1 mps 765 mmHg 60%
    23:00 +21°C° 0 mm 1 mps 765 mmHg 63%
    Show more